Flag for Iran Weather past 2 weeks in Esfahãn, Iran

Now
81 °F

Passing clouds.


Feels Like: 79 °F
Forecast: 56 / 81 °F
Wind: 12 mph from Northwest

Location: Esfahan


UV Index: 7 (High)

Visibility: N/A


Pressure: 29.95 "Hg

Humidity: 15%

Dew point: 28 °F

Location of EsfahãnLocation

Historic Weather in Esfahãn

°F

Esfahãn temperature yesterday

Maximum temperature yesterday: 79 °F (at 4:00 PM)
Minimum temperature yesterday: 50 °F (at 5:30 AM)
Average temperature yesterday: 66 °F

Past Weeks' High & Low Weather Summary

 TemperatureHumidityPressure
High84 °F (Apr 19, 2:30 PM)87% (Apr 15, 6:00 AM)30.27 "Hg (Apr 15, 6:00 AM)
Low37 °F (Apr 7, 2:00 AM)4% (Apr 19, 4:30 PM)29.95 "Hg (Apr 9, 2:30 PM)
Average64 °F30%30.10 "Hg
* Reported Apr 6 3:30 PM — Apr 21 4:00 PM, Esfahãn, Weather by CustomWeather, © 2014

Note: Actual official high and low records may vary slightly from our data, if they occured in-between our weather recording intervals... More about our weather records

Advertising

Historic Weather Conditions — Data for Previous 24 hours

 ConditionsComfort  
Time TempWeatherWind HumidityBarometerVisibility
4:00 PM
Apr 21
81 °FPassing clouds.9 mph15%29.95 "HgN/A
3:30 PM81 °FPassing clouds.7 mph16%29.95 "HgN/A
3:00 PM81 °FPassing clouds.16 mph17%29.95 "HgN/A
2:30 PM81 °FPassing clouds.5 mph17%29.98 "HgN/A
2:00 PM77 °FPassing clouds.5 mph19%29.98 "HgN/A
1:30 PM79 °FPassing clouds.7 mph18%30.01 "HgN/A
1:00 PM77 °FPassing clouds.7 mph19%30.01 "HgN/A
12:30 PM75 °FPassing clouds.9 mph22%30.01 "HgN/A
12:00 PM73 °FPassing clouds.9 mph23%30.04 "HgN/A
11:30 AM73 °FSunny.12 mph23%30.04 "Hg10 mi
11:00 AM72 °FSunny.7 mph25%30.04 "Hg5 mi
10:30 AM70 °FSunny.7 mph29%30.04 "Hg5 mi
10:00 AM68 °FSunny.7 mph30%30.04 "Hg4 mi
9:30 AM64 °FSunny.9 mph37%30.04 "Hg4 mi
9:00 AM61 °FSunny.No wind36%30.04 "Hg4 mi
8:30 AM59 °FSunny.5 mph42%30.04 "Hg4 mi
8:00 AM55 °FHaze.No wind44%30.04 "Hg3 mi
7:00 AM50 °FHaze.5 mph50%30.01 "Hg2 mi
6:30 AM46 °FClear.7 mph50%29.98 "Hg4 mi
6:00 AM52 °FClear.7 mph44%29.98 "Hg10 mi
5:30 AM52 °FClear.7 mph44%29.98 "Hg10 mi
5:00 AM55 °FClear.7 mph38%29.98 "Hg10 mi
4:30 AM55 °FClear.12 mph38%29.98 "Hg10 mi
4:00 AM57 °FClear.5 mph39%29.98 "Hg10 mi
3:30 AM57 °FClear.5 mph39%30.01 "Hg10 mi
3:00 AM63 °FClear.9 mph34%30.01 "Hg10 mi
2:30 AM63 °FClear.7 mph34%30.01 "Hg10 mi
1:30 AM63 °FClear.9 mph32%30.01 "Hg10 mi
1:00 AM63 °FClear.7 mph32%30.04 "Hg10 mi
12:30 AM63 °FClear.9 mph30%30.04 "Hg10 mi
12:00 AM64 °FClear.7 mph30%30.04 "Hg10 mi
11:00 PM
Apr 20
64 °FClear.9 mph30%30.04 "Hg10 mi
10:30 PM66 °FClear.9 mph26%30.04 "Hg10 mi
10:00 PM68 °FPassing clouds.9 mph24%30.04 "HgN/A
9:30 PM68 °FPassing clouds.9 mph24%30.04 "HgN/A
9:00 PM70 °FScattered clouds.9 mph23%30.04 "HgN/A
8:00 PM73 °FPartly sunny.5 mph19%30.01 "HgN/A
7:30 PM75 °FPartly sunny.5 mph18%30.01 "HgN/A
7:00 PM75 °FPartly sunny.5 mph16%30.01 "HgN/A
6:30 PM77 °FPartly sunny.7 mph15%30.01 "HgN/A
6:00 PM77 °FPartly sunny.5 mph15%30.01 "HgN/A
5:30 PM77 °FPartly sunny.5 mph15%30.01 "HgN/A
5:00 PM79 °FPartly sunny.5 mph15%30.01 "HgN/A
Weather by CustomWeather, © 2014

See weather overview